TCA7378 SVMG-SVTC

Flight info

Callsign TCA7378
Flight time 0h 33m
Altitude 23000
Route ESPEP ESPEP DCT SILED A300 MUN
Aircraft C25B/M-SDE2E3FGHRWXY/LB1

Departure

Time 2026-05-09 10:46
Airport Del Caribe Santiago Mariño International Airport (SVMG)

Arrival

Time 2026-05-09 11:19
Airport Tucupita Airport (SVTC)
Time Latitude Longitude Altitude Speed Heading
2026-05-09 10:36 10.91451 -63.97141 56 ft 0 kts 78°
2026-05-09 10:39 10.91451 -63.97142 56 ft 0 kts 78°
2026-05-09 10:43 10.91451 -63.97141 54 ft 1 kts 78°
2026-05-09 10:43 10.91432 -63.97130 54 ft 6 kts 224°
2026-05-09 10:44 10.91403 -63.97173 53 ft 10 kts 190°
2026-05-09 10:44 10.91328 -63.97150 57 ft 12 kts 160°
2026-05-09 10:44 10.91252 -63.97133 60 ft 11 kts 169°
2026-05-09 10:44 10.91187 -63.97118 64 ft 9 kts 162°
2026-05-09 10:45 10.91174 -63.97091 57 ft 0 kts 76°
2026-05-09 10:46 10.91656 -63.93346 2961 ft 220 kts 101°
2026-05-09 10:46 10.91125 -63.91884 4298 ft 225 kts 117°
2026-05-09 10:46 10.90036 -63.90707 5492 ft 233 kts 139°
2026-05-09 10:46 10.88625 -63.89843 6636 ft 240 kts 149°
2026-05-09 10:47 10.87144 -63.89013 7748 ft 246 kts 148°
2026-05-09 10:47 10.85640 -63.88149 8816 ft 251 kts 148°
2026-05-09 10:47 10.84119 -63.87281 9825 ft 257 kts 148°
2026-05-09 10:47 10.82544 -63.86381 10798 ft 262 kts 149°
2026-05-09 10:48 10.80939 -63.85467 11772 ft 266 kts 149°
2026-05-09 10:48 10.79309 -63.84535 12710 ft 271 kts 150°
2026-05-09 10:48 10.77651 -63.83592 13644 ft 275 kts 149°
2026-05-09 10:48 10.75971 -63.82629 14551 ft 279 kts 150°
2026-05-09 10:49 10.74267 -63.81659 15426 ft 283 kts 149°
2026-05-09 10:49 10.72533 -63.80666 16285 ft 288 kts 150°
2026-05-09 10:49 10.70779 -63.79669 17112 ft 291 kts 149°
2026-05-09 10:49 10.69024 -63.78665 17908 ft 295 kts 150°
2026-05-09 10:50 10.67219 -63.77637 18695 ft 299 kts 150°
2026-05-09 10:50 10.65390 -63.76592 19457 ft 304 kts 150°
2026-05-09 10:50 10.63534 -63.75537 20195 ft 308 kts 150°
2026-05-09 10:50 10.61655 -63.74463 20909 ft 312 kts 150°
2026-05-09 10:51 10.59741 -63.73371 21551 ft 318 kts 150°
2026-05-09 10:51 10.57793 -63.72263 22205 ft 323 kts 151°
2026-05-09 10:51 10.55816 -63.71133 22832 ft 329 kts 151°
2026-05-09 10:51 10.53870 -63.69835 22927 ft 351 kts 146°
2026-05-09 10:52 10.51831 -63.68362 22936 ft 363 kts 146°
2026-05-09 10:52 10.49735 -63.66908 22936 ft 366 kts 148°
2026-05-09 10:52 10.47615 -63.65447 22935 ft 370 kts 147°
2026-05-09 10:52 10.45486 -63.63959 22935 ft 372 kts 147°
2026-05-09 10:53 10.43343 -63.62466 22933 ft 375 kts 147°
2026-05-09 10:53 10.41195 -63.60966 22936 ft 376 kts 147°
2026-05-09 10:53 10.39024 -63.59459 22936 ft 378 kts 147°
2026-05-09 10:53 10.36857 -63.57950 22938 ft 379 kts 147°
2026-05-09 10:54 10.34676 -63.56442 22941 ft 380 kts 148°
2026-05-09 10:54 10.32502 -63.54977 22943 ft 381 kts 148°
2026-05-09 10:54 10.30303 -63.53475 22943 ft 381 kts 148°
2026-05-09 10:54 10.28107 -63.51968 22945 ft 381 kts 148°
2026-05-09 10:55 10.25903 -63.50465 22945 ft 382 kts 148°
2026-05-09 10:55 10.23695 -63.48957 22943 ft 383 kts 148°
2026-05-09 10:55 10.21486 -63.47449 22944 ft 383 kts 148°
2026-05-09 10:55 10.19277 -63.45937 22945 ft 383 kts 148°
2026-05-09 10:56 10.17091 -63.44450 22944 ft 384 kts 148°
2026-05-09 10:56 10.14877 -63.42938 22944 ft 384 kts 148°
2026-05-09 10:56 10.12666 -63.41431 22944 ft 384 kts 148°
2026-05-09 10:56 10.10452 -63.39915 22944 ft 384 kts 148°
2026-05-09 10:57 10.08229 -63.38401 22943 ft 384 kts 148°
2026-05-09 10:57 10.06015 -63.36895 22943 ft 384 kts 148°
2026-05-09 10:57 10.03801 -63.35380 22944 ft 384 kts 148°
2026-05-09 10:57 10.01583 -63.33870 22944 ft 384 kts 148°
2026-05-09 10:58 9.99370 -63.32359 22944 ft 383 kts 148°
2026-05-09 10:58 9.97187 -63.30869 22944 ft 383 kts 149°
2026-05-09 10:58 9.94970 -63.29366 22944 ft 383 kts 149°
2026-05-09 10:58 9.92760 -63.27854 22944 ft 383 kts 149°
2026-05-09 10:59 9.90548 -63.26348 22945 ft 383 kts 149°
2026-05-09 10:59 9.88338 -63.24845 22944 ft 382 kts 149°
2026-05-09 10:59 9.86129 -63.23341 22945 ft 382 kts 149°
2026-05-09 10:59 9.83926 -63.21839 22945 ft 382 kts 149°
2026-05-09 11:00 9.81719 -63.20337 22944 ft 382 kts 149°
2026-05-09 11:00 9.79514 -63.18835 22944 ft 382 kts 149°
2026-05-09 11:00 9.77305 -63.17337 22945 ft 382 kts 149°
2026-05-09 11:00 9.75166 -63.15799 22938 ft 383 kts 143°
2026-05-09 11:01 9.73306 -63.13848 22936 ft 386 kts 133°
2026-05-09 11:01 9.71692 -63.11665 22938 ft 387 kts 129°
2026-05-09 11:01 9.70099 -63.09456 22770 ft 392 kts 129°
2026-05-09 11:01 9.68450 -63.07206 22269 ft 403 kts 129°
2026-05-09 11:02 9.66766 -63.04884 21727 ft 414 kts 128°
2026-05-09 11:02 9.65044 -63.02514 21165 ft 421 kts 128°
2026-05-09 11:02 9.63302 -63.00112 20607 ft 425 kts 128°
2026-05-09 11:02 9.61574 -62.97732 20050 ft 422 kts 128°
2026-05-09 11:03 9.59878 -62.95403 19509 ft 400 kts 128°
2026-05-09 11:03 9.58274 -62.93188 18993 ft 375 kts 127°
2026-05-09 11:03 9.56799 -62.91163 18515 ft 343 kts 127°
2026-05-09 11:03 9.55398 -62.89238 18073 ft 336 kts 127°
2026-05-09 11:04 9.54022 -62.87355 17635 ft 329 kts 127°
2026-05-09 11:04 9.52683 -62.85503 17213 ft 324 kts 127°
2026-05-09 11:04 9.51349 -62.83680 16798 ft 320 kts 127°
2026-05-09 11:04 9.50055 -62.81898 16387 ft 316 kts 126°
2026-05-09 11:05 9.48756 -62.80111 15972 ft 313 kts 127°
2026-05-09 11:05 9.47467 -62.78343 15561 ft 311 kts 126°
2026-05-09 11:05 9.46191 -62.76586 15153 ft 308 kts 126°
2026-05-09 11:05 9.44921 -62.74848 14749 ft 306 kts 126°
2026-05-09 11:06 9.43665 -62.73116 14347 ft 304 kts 126°
2026-05-09 11:06 9.42407 -62.71398 13949 ft 303 kts 126°
2026-05-09 11:06 9.41164 -62.69681 13545 ft 302 kts 126°
2026-05-09 11:06 9.39935 -62.68004 13150 ft 300 kts 126°
2026-05-09 11:07 9.38703 -62.66307 12749 ft 298 kts 126°
2026-05-09 11:07 9.37476 -62.64628 12362 ft 296 kts 126°
2026-05-09 11:07 9.36253 -62.62952 11966 ft 294 kts 126°
2026-05-09 11:07 9.35049 -62.61290 11582 ft 292 kts 125°
2026-05-09 11:08 9.33841 -62.59637 11188 ft 291 kts 126°
2026-05-09 11:08 9.32639 -62.57993 10809 ft 290 kts 125°
2026-05-09 11:08 9.31449 -62.56352 10426 ft 288 kts 126°
2026-05-09 11:08 9.30268 -62.54748 10050 ft 287 kts 126°
2026-05-09 11:09 9.29094 -62.53116 9667 ft 286 kts 125°
2026-05-09 11:09 9.27905 -62.51505 9300 ft 285 kts 126°
2026-05-09 11:09 9.26731 -62.49894 8930 ft 284 kts 125°
2026-05-09 11:09 9.25561 -62.48289 8550 ft 283 kts 126°
2026-05-09 11:10 9.24392 -62.46688 8176 ft 282 kts 125°
2026-05-09 11:10 9.23232 -62.45092 7804 ft 281 kts 125°
2026-05-09 11:10 9.22085 -62.43527 7437 ft 279 kts 126°
2026-05-09 11:10 9.20938 -62.41959 7069 ft 275 kts 125°
2026-05-09 11:11 9.19829 -62.40429 6716 ft 262 kts 125°
2026-05-09 11:11 9.18774 -62.38996 6392 ft 246 kts 125°
2026-05-09 11:11 9.17789 -62.37638 6086 ft 232 kts 124°
2026-05-09 11:11 9.16850 -62.36358 5815 ft 221 kts 125°
2026-05-09 11:12 9.15957 -62.35137 5536 ft 211 kts 124°
2026-05-09 11:12 9.15100 -62.33959 5266 ft 205 kts 124°
2026-05-09 11:12 9.14280 -62.32836 5024 ft 189 kts 124°
2026-05-09 11:12 9.13514 -62.31792 4792 ft 183 kts 124°
2026-05-09 11:13 9.12775 -62.30780 4558 ft 180 kts 123°
2026-05-09 11:13 9.12034 -62.29765 4320 ft 179 kts 124°
2026-05-09 11:13 9.11297 -62.28757 4084 ft 178 kts 123°
2026-05-09 11:13 9.10564 -62.27755 3851 ft 176 kts 123°
2026-05-09 11:14 9.09840 -62.26760 3617 ft 175 kts 123°
2026-05-09 11:14 9.09111 -62.25768 3384 ft 175 kts 123°
2026-05-09 11:14 9.08388 -62.24776 3152 ft 175 kts 123°
2026-05-09 11:14 9.07668 -62.23790 2923 ft 174 kts 123°
2026-05-09 11:15 9.06951 -62.22811 2694 ft 173 kts 124°
2026-05-09 11:15 9.06258 -62.21859 2470 ft 165 kts 123°
2026-05-09 11:15 9.05595 -62.20973 2261 ft 151 kts 123°
2026-05-09 11:15 9.05013 -62.20139 2100 ft 134 kts 121°
2026-05-09 11:16 9.04769 -62.19322 1919 ft 115 kts 93°
2026-05-09 11:16 9.04776 -62.18547 1754 ft 108 kts 81°
2026-05-09 11:16 9.05034 -62.17852 1613 ft 105 kts 62°
2026-05-09 11:16 9.05364 -62.17188 1474 ft 107 kts 67°
2026-05-09 11:17 9.05655 -62.16482 1348 ft 111 kts 64°
2026-05-09 11:17 9.05997 -62.15796 1207 ft 110 kts 64°
2026-05-09 11:17 9.06296 -62.15080 1067 ft 111 kts 66°
2026-05-09 11:17 9.06630 -62.14391 928 ft 107 kts 64°
2026-05-09 11:18 9.06932 -62.13714 782 ft 104 kts 67°
2026-05-09 11:18 9.07239 -62.13042 647 ft 106 kts 63°
2026-05-09 11:18 9.07556 -62.12369 516 ft 106 kts 65°
2026-05-09 11:18 9.07858 -62.11682 378 ft 106 kts 65°
2026-05-09 11:19 9.08173 -62.11017 242 ft 106 kts 64°
2026-05-09 11:19 9.08482 -62.10333 90 ft 106 kts 65°
2026-05-09 11:19 9.08775 -62.09693 21 ft 87 kts 65°
2026-05-09 11:19 9.08938 -62.09331 22 ft 29 kts 74°
2026-05-09 11:20 9.08958 -62.09303 20 ft 10 kts 242°
2026-05-09 11:20 9.08920 -62.09380 22 ft 14 kts 245°
2026-05-09 11:20 9.08874 -62.09479 22 ft 17 kts 244°
2026-05-09 11:20 9.08820 -62.09596 21 ft 20 kts 245°
2026-05-09 11:21 9.08759 -62.09729 24 ft 22 kts 245°
2026-05-09 11:21 9.08693 -62.09871 23 ft 19 kts 245°
2026-05-09 11:21 9.08642 -62.09984 24 ft 14 kts 246°
2026-05-09 11:21 9.08580 -62.10034 22 ft 13 kts 174°
2026-05-09 11:22 9.08535 -62.10074 22 ft 7 kts 277°
2026-05-09 11:22 9.08542 -62.10085 21 ft 4 kts 326°
2026-05-09 11:22 9.08545 -62.10087 21 ft 0 kts 332°